Kalamazoo, MI

4:12 AM EDT on May 24, 2017 (GMT -0400)
Kalamazoo-Battle Creek International

Weather History for KAZO - January, 2013

Change the Weather History Date:

Tuesday, January 29, 2013

  Actual Average Record
Temperature  
Mean Temperature 47 °F 24 °F  
Max Temperature 58 °F 31 °F 58 °F (2013)
Min Temperature 35 °F 18 °F -9 °F (1966)
Degree Days  
Heating Degree Days 18 41  
Month to date heating degree days 1082 1181  
Since 1 July heating degree days 3384 3632  
Cooling Degree Days 0 0  
Month to date cooling degree days 0 0  
Year to date cooling degree days 0 0  
Moisture  
Dew Point 48 °F    
Average Humidity 97    
Maximum Humidity 100    
Minimum Humidity 93    
Precipitation  
Precipitation 0.72 in 0.05 in 0.72 in (2013)
Month to date precipitation 2.61 1.68  
Year to date precipitation 2.61 1.68  
Sea Level Pressure  
Sea Level Pressure 29.71 in    
Wind  
Wind Speed 12 mph (South)    
Max Wind Speed 23 mph    
Max Gust Speed 32 mph    
Visibility 2 miles    
Events Fog , Rain , Thunderstorm    
T = Trace of Precipitation, MM = Missing Value Source: NWS Daily Summary

Daily Weather History Graph

Daily Weather History Graph

Search for Another Location

Airport or City:

Trip Planner

Search our weather history database for the weather conditions in past years. The results will help you decide how hot, cold, wet, or windy it might be!

Date:

Astronomy

Jan. 29, 2013 Rise Set
Actual Time 7:58 AM EST 5:53 PM EST
Civil Twilight 7:28 AM EST 6:23 PM EST
Nautical Twilight 6:54 AM EST 6:56 PM EST
Astronomical Twilight 6:21 AM EST 7:29 PM EST
Moon 8:53 PM EST (1/29) 8:50 AM EST (1/29)
Length of Visible Light 10h 54m
Length of Day
9h 54m
Waning Gibbous, 94% of the Moon is Illuminated
Jan 29
Waning Gibbous
Feb 3
Last Quarter
Feb 10
New
Feb 17
First Quarter
Feb 25
Full

Hourly Weather History & Observations

Time (EST) Temp. Windchill Dew Point Humidity Pressure Visibility Wind Dir Wind Speed Gust Speed Precip Events Conditions
12:53 AM 36.0 °F 33.3 °F 35.1 °F 97% 29.96 in 0.5 mi ESE 3.5 mph - N/A Fog Fog
1:24 AM 35.6 °F 32.8 °F 35.6 °F 100% 29.92 in 0.2 mi ESE 3.5 mph - N/A Fog Fog
1:49 AM 35.6 °F 30.7 °F 35.6 °F 100% 29.91 in 0.5 mi SE 5.8 mph - N/A Fog Fog
1:53 AM 36.0 °F 31.1 °F 36.0 °F 100% 29.93 in 0.5 mi SE 5.8 mph - N/A Fog Fog
2:32 AM 35.6 °F - 35.6 °F 100% 29.91 in 0.2 mi Calm Calm - 0.06 in Fog , Rain Heavy Rain
2:43 AM 37.4 °F 28.5 °F 35.6 °F 93% 29.84 in 0.5 mi ESE 15.0 mph 19.6 mph 0.11 in Fog , Rain Rain
2:47 AM 37.4 °F 28.9 °F 37.4 °F 100% 29.86 in 1.0 mi SE 13.8 mph 19.6 mph 0.12 in Rain Rain
2:53 AM 39.0 °F 34.0 °F 39.0 °F 100% 29.89 in 1.5 mi SSE 6.9 mph 23.0 mph 0.14 in Rain Rain
3:00 AM 39.2 °F 33.0 °F 39.2 °F 100% 29.86 in 2.0 mi SE 9.2 mph - 0.01 in Rain , Thunderstorm Thunderstorms and Rain
3:21 AM 39.2 °F 37.0 °F 39.2 °F 100% 29.85 in 2.5 mi South 3.5 mph 19.6 mph 0.04 in Rain Light Rain
3:27 AM 39.2 °F 34.2 °F 39.2 °F 100% 29.84 in 3.0 mi SSE 6.9 mph - 0.05 in Rain , Thunderstorm Rain
3:53 AM 42.1 °F 36.6 °F 42.1 °F 100% 29.85 in 3.0 mi SSE 9.2 mph - 0.05 in   Overcast
4:16 AM 42.8 °F 38.6 °F 42.8 °F 100% 29.81 in 2.0 mi SSE 6.9 mph - N/A   Overcast
4:24 AM 44.6 °F 39.7 °F 44.6 °F 100% 29.80 in 1.5 mi SSE 9.2 mph - N/A   Overcast
4:53 AM 45.0 °F 40.6 °F 45.0 °F 100% 29.80 in 1.0 mi SSE 8.1 mph 17.3 mph N/A   Overcast
5:08 AM 44.6 °F 40.2 °F 44.6 °F 100% 29.77 in 0.5 mi SSE 8.1 mph - 0.00 in Fog , Rain Light Rain
5:26 AM 46.4 °F 41.9 °F 46.4 °F 100% 29.76 in 0.2 mi SSE 9.2 mph - 0.00 in Fog , Rain Light Rain
5:48 AM 48.2 °F - 48.2 °F 100% 29.75 in 0.5 mi South 15.0 mph 20.7 mph 0.01 in Fog Fog
5:53 AM 48.0 °F - 48.0 °F 100% 29.77 in 0.5 mi South 11.5 mph 20.7 mph 0.01 in Fog Fog
6:18 AM 46.4 °F 41.1 °F 46.4 °F 100% 29.77 in 0.2 mi South 11.5 mph - 0.01 in Fog , Rain , Thunderstorm Light Thunderstorms and Rain
6:51 AM 48.2 °F - 48.2 °F 100% 29.75 in 0.2 mi South 11.5 mph - 0.11 in Fog , Rain Rain
6:53 AM 48.0 °F - 48.0 °F 100% 29.77 in 0.2 mi South 10.4 mph - 0.11 in Fog , Rain Rain
7:25 AM 50.0 °F - 50.0 °F 100% 29.75 in 1.0 mi South 15.0 mph - 0.00 in   Overcast
7:53 AM 53.1 °F - 52.0 °F 96% 29.76 in 1.0 mi South 18.4 mph - 0.00 in   Overcast
8:53 AM 53.1 °F - 53.1 °F 100% 29.77 in 0.8 mi South 13.8 mph - N/A   Overcast
9:53 AM 54.0 °F - 53.1 °F 97% 29.76 in 0.8 mi South 15.0 mph - N/A   Overcast
10:53 AM 54.0 °F - 54.0 °F 100% 29.77 in 1.8 mi SSW 12.7 mph 21.9 mph 0.00 in   Overcast
11:53 AM 54.0 °F - 54.0 °F 100% 29.75 in 1.8 mi SSW 13.8 mph - 0.02 in Rain Light Rain
12:09 PM 55.4 °F - 55.4 °F 100% 29.72 in 2.0 mi South 17.3 mph - 0.03 in Rain Light Rain
12:27 PM 55.4 °F - 55.4 °F 100% 29.71 in 4.0 mi SSW 12.7 mph 21.9 mph 0.03 in   Overcast
12:53 PM 55.0 °F - 55.0 °F 100% 29.72 in 3.0 mi South 17.3 mph 25.3 mph 0.03 in   Overcast
1:53 PM 55.9 °F - 55.0 °F 97% 29.69 in 2.0 mi South 15.0 mph 23.0 mph 0.00 in Rain Light Rain
2:16 PM 55.4 °F - 55.4 °F 100% 29.67 in 2.0 mi South 16.1 mph - 0.07 in Rain , Thunderstorm Heavy Thunderstorms and Rain
2:53 PM 55.9 °F - 55.0 °F 97% 29.65 in 2.0 mi South 11.5 mph - 0.15 in Rain Light Rain
3:42 PM 55.4 °F - 53.6 °F 94% 29.64 in 1.2 mi South 12.7 mph - 0.00 in   Overcast
3:53 PM 55.0 °F - 54.0 °F 96% 29.65 in 1.5 mi South 12.7 mph - 0.00 in   Overcast
4:53 PM 55.0 °F - 54.0 °F 96% 29.64 in 1.5 mi South 11.5 mph - 0.02 in Rain Light Rain
5:53 PM 55.0 °F - 54.0 °F 96% 29.62 in 1.5 mi South 13.8 mph - 0.04 in Rain Light Rain
6:53 PM 55.9 °F - 54.0 °F 93% 29.59 in 2.5 mi South 12.7 mph 21.9 mph 0.00 in Rain Light Rain
7:53 PM 55.9 °F - 54.0 °F 93% 29.55 in 4.0 mi South 12.7 mph 20.7 mph 0.01 in Rain Light Rain
8:53 PM 57.0 °F - 54.0 °F 89% 29.51 in 5.0 mi South 19.6 mph 26.5 mph 0.00 in   Overcast
9:51 PM 57.2 °F - 53.6 °F 88% 29.45 in 7.0 mi South 17.3 mph 25.3 mph N/A Thunderstorm Thunderstorm
9:53 PM 57.9 °F - 54.0 °F 87% 29.46 in 7.0 mi South 18.4 mph 25.3 mph N/A Thunderstorm Thunderstorm
10:53 PM 57.0 °F - 55.0 °F 93% 29.43 in 3.0 mi South 15.0 mph 24.2 mph 0.07 in Rain , Thunderstorm Light Thunderstorms and Rain
11:16 PM 57.2 °F - 55.4 °F 94% 29.41 in 4.0 mi SSW 15.0 mph - 0.02 in Rain Light Rain
11:21 PM 57.2 °F - 55.4 °F 94% 29.42 in 4.0 mi SSW 12.7 mph - 0.02 in Rain Light Rain
11:36 PM 57.2 °F - 55.4 °F 94% 29.40 in 4.0 mi South 10.4 mph - 0.03 in Rain Light Rain
11:41 PM 57.2 °F - 55.4 °F 94% 29.40 in 2.5 mi SSW 8.1 mph - 0.04 in Rain Light Rain
11:53 PM 55.9 °F - 55.0 °F 97% 29.40 in 2.5 mi SW 5.8 mph - 0.07 in Rain Rain